sat.trackr.live / text

‹ back to catalog

STARLINK-34710

NORAD 65365 · 2025-190Q

PAYLOAD ACTIVE UNKNOWN

§ Identity

Operator
Country
US
Launch date
2025-08-28
Launch site
AFETR
Launch vehicle
Mass (kg)
RCS (m²)

Purposes: comms

External: N2YO · Heavens-Above · Gunter

§ Orbital elements

Epoch: 2026-05-24T11:24:17.505504Z

Period
94.10 min
Inclination
53.1586°
Eccentricity
0.0001081
Mean motion
15.30209046 rev/d
Perigee alt
474.4 km
Apogee alt
475.9 km
Semi-major
6,853.3 km
B*
1.4427e-4
RAAN
176.4937°
Arg perigee
79.0224°
Mean anomaly
281.0898°
Rev number
4,088

§ Raw data

STARLINK-347101 65365U 25190Q   26144.47520261  .00003917  00000+0  14427-3 0  99962 65365  53.1586 176.4937 0001081  79.0224 281.0898 15.30209046 40882

JSON: /api/v1/satellites/65365 · /tle

For live sub-satellite position, see the globe view (requires WebGL).

§ Visibility from observer

Set your observer location to see the next 7 days of passes ≥ 10°. The values pass through the URL so the page stays shareable.

No JS? Fill the form by hand. The geolocation button needs JavaScript.